Simultaneous Nadir Overpasses (SNOs) Predictions

Prediction of SNOs between METOP-A and NOAA-19 Satellite Orbit:

Table of predicted SNOs for the next 14.0 days since TLE Epoch: 12/21/2018
Index Date (METOP-A) Time (METOP-A) Lat,Lon (METOP-A) SZA (METOP-A ) Date (NOAA-19) Time (NOAA-19) Lat,Lon (NOAA-19) SZA (NOAA-19 ) Distance(km) Time Diff (sec)
1 12/23/2018 16:02:40 79.20, -50.10 102.74 12/23/2018 16:01:36 79.20, -50.15 102.73 1.11 64
2 12/23/2018 16:53:22 -79.18, 117.12 77.28 12/23/2018 16:52:31 -79.20, 117.11 77.27 1.84 51
3 12/23/2018 17:44:02 79.18, -75.59 102.72 12/23/2018 17:43:37 79.20, -75.66 102.73 2.78 25
4 12/23/2018 18:34:43 -79.20, 91.88 77.27 12/23/2018 18:34:31 -79.17, 91.88 77.30 3.18 12
5 12/23/2018 19:25:23 79.19,-100.83 102.73 12/23/2018 19:25:37 79.17,-100.89 102.71 2.97 14
6 12/23/2018 20:16:05 -79.18, 66.39 77.29 12/23/2018 20:16:32 -79.17, 66.37 77.30 0.83 27
7 12/23/2018 21:06:45 79.17,-126.32 102.70 12/23/2018 21:07:38 79.17,-126.40 102.71 1.74 53
8 12/23/2018 21:57:27 -79.16, 40.90 77.32 12/23/2018 21:58:33 -79.17, 40.87 77.30 1.81 66
9 01/03/2019 13:02:11 -79.23, 175.12 77.88 01/03/2019 13:00:57 -79.22, 175.25 77.90 3.03 74
10 01/03/2019 13:52:51 79.22, -17.63 102.11 01/03/2019 13:52:02 79.24, -17.73 102.12 3.35 49
11 01/03/2019 14:43:32 -79.21, 149.63 77.91 01/03/2019 14:42:57 -79.22, 149.74 77.90 2.56 35
12 01/03/2019 15:34:11 79.23, -42.87 102.12 01/03/2019 15:34:01 79.21, -42.97 102.09 3.11 10
13 01/03/2019 16:24:53 -79.22, 124.39 77.90 01/03/2019 16:24:58 -79.22, 124.24 77.91 3.24 5
14 01/03/2019 17:15:33 79.21, -68.36 102.09 01/03/2019 17:16:02 79.21, -68.48 102.09 2.47 29
15 01/03/2019 18:06:15 -79.20, 98.90 77.93 01/03/2019 18:06:58 -79.19, 99.00 77.94 2.56 43
16 01/03/2019 18:56:55 79.19, -93.86 102.05 01/03/2019 18:58:02 79.18, -93.72 102.06 2.87 67




NCC Satellite Simultaneous Nadir Overpasses (SNOs) Prediction Service
